Dewpoint
47 47 51 52 55 57 59 60 61 61 61 63 64 64 65 66 67 70 71 72 73 72 73 73 73 73 73 73 73 73 74 74 74 73 73 73 72 72 72 71 72 71 71 72 71 71 71 71 71 70 70 71 68 66 65 65 65 68 68 66 68 67 67
47 47 51 54 56 58 59 60 61 61 61 63 64 64 65 66 67 69 71 72 73 73 73 73 73 73 73 73 73 74 74 74 74 74 73 73 73 73 72 71 71 72 72 71 72 71 71 71 71 70 70 71 66 67 66 66 65 67 68 67 68 67 67
48 49 51 53 57 58 60 60 61 61 61 62 64 64 65 66 67 68 70 72 73 73 73 73 73 73 73 74 74 74 74 74 74 73 73 73 73 72 73 72 72 72 72 71 72 71 72 71 71 70 70 68 66 66 67 67 67 67 67 67 68 67 66
50 51 51 53 55 58 59 60 61 61 62 62 63 64 65 66 67 68 70 71 72 73 73 73 73 73 73 74 74 74 74 74 74 73 73 74 73 73 72 73 72 72 72 72 72 71 71 72 70 69 71 67 67 66 66 67 67 68 67 67 66 67 67
51 52 52 52 53 56 58 60 61 61 61 62 64 65 65 66 67 68 69 71 72 73 73 74 73 73 73 74 74 74 74 74 73 73 73 73 74 73 73 73 72 72 72 72 72 72 70 71 70 69 69 67 67 66 66 67 67 68 68 67 66 66 67
51 51 52 52 52 54 56 57 60 60 60 61 63 65 65 66 66 67 68 71 72 73 73 74 74 74 73 73 74 74 74 74 74 73 73 73 73 73 73 72 72 72 72 72 72 71 70 69 70 69 68 66 67 66 66 66 67 67 68 67 66 67 66
50 51 51 51 52 52 55 57 59 60 60 62 64 65 65 65 66 66 68 70 71 72 73 74 74 73 73 74 74 74 74 74 73 73 73 73 73 73 73 73 72 72 71 72 72 71 70 69 68 69 68 66 67 66 66 66 66 67 67 68 66 66 66
48 50 50 51 50 51 54 58 60 60 61 63 64 65 65 65 66 66 67 68 70 72 73 73 74 74 73 73 73 73 73 73 73 73 73 72 72 72 72 72 72 72 72 71 71 71 70 69 68 69 68 66 66 66 66 66 66 66 66 67 67 66 67
49 50 50 50 50 51 54 58 59 61 62 63 64 65 65 65 65 66 66 68 69 71 72 73 73 74 73 73 73 73 73 74 73 74 73 72 72 72 72 72 72 72 71 72 71 71 70 69 68 68 67 67 66 66 66 66 66 66 66 66 67 66 66
50 50 51 51 51 53 56 58 59 61 63 63 64 65 65 65 65 66 66 67 68 69 71 72 73 74 74 73 73 73 73 73 74 73 73 72 72 72 72 72 72 72 72 72 71 71 70 70 69 68 68 67 67 66 66 66 66 66 66 66 66 66 66
50 51 53 53 52 53 56 58 59 60 63 64 64 65 65 66 66 65 65 66 67 68 70 72 73 73 74 73 73 73 73 73 73 73 73 73 72 72 72 72 72 72 72 72 71 71 70 70 70 68 68 67 67 66 66 66 66 66 66 66 66 66 66
50 52 53 53 53 54 55 58 60 61 64 65 65 65 66 66 66 66 65 65 66 67 69 71 72 73 74 73 73 73 73 73 73 73 73 73 72 72 71 71 72 72 72 72 71 71 71 70 70 69 68 67 67 67 66 66 66 66 66 66 66 66 66
52 54 55 53 54 55 57 61 61 63 64 66 66 66 67 67 66 66 66 65 65 67 69 71 72 73 74 74 73 73 73 73 73 73 73 73 72 72 72 71 71 72 72 72 71 71 70 70 70 70 69 68 67 67 66 66 66 66 66 67 67 66 66
58 53 53 52 53 55 58 61 62 63 63 64 66 67 68 67 67 66 66 65 65 67 68 70 72 73 73 74 73 73 73 73 73 73 73 73 72 72 72 71 71 72 72 72 72 71 71 70 70 70 69 69 68 67 67 67 66 66 66 66 67 67 66
53 53 52 52 55 58 59 60 61 62 63 63 65 66 68 68 68 67 67 66 66 67 68 70 72 72 73 73 73 72 73 73 73 73 73 73 73 72 72 71 71 71 72 73 72 72 71 71 70 70 69 69 68 67 67 67 67 67 66 66 67 66 67
53 52 53 52 55 58 60 60 61 62 63 65 65 66 67 68 68 68 67 67 66 67 68 70 71 72 72 73 73 72 73 73 73 73 74 74 73 73 72 72 71 71 72 73 72 72 71 71 71 70 69 69 68 68 67 67 68 66 63 64 66 66 67
56 56 59 61 58 59 60 60 61 63 66 67 67 67 67 69 69 68 68 68 67 67 68 69 71 71 72 72 73 73 73 73 73 73 73 74 73 73 73 72 72 72 72 73 73 72 72 72 71 70 69 69 68 67 67 67 67 63 62 62 64 66 66
60 60 62 62 61 60 63 66 66 67 68 68 68 68 68 69 69 69 68 68 68 67 68 69 70 70 71 72 73 73 73 73 73 73 73 73 74 73 73 73 73 72 73 73 73 72 72 72 71 70 70 69 68 68 67 67 64 61 61 62 62 64 66
58 60 62 62 62 62 63 67 68 68 68 69 69 68 68 69 69 69 69 69 68 68 67 69 69 70 71 72 73 74 74 74 73 73 73 73 74 74 74 73 73 73 73 73 73 73 72 72 71 71 70 69 68 67 67 67 63 60 60 61 61 62 65
46 47 60 61 61 63 64 68 70 70 69 69 69 69 69 70 70 70 69 69 69 67 67 68 69 69 70 72 73 74 74 74 74 74 73 74 74 74 74 74 73 74 74 74 74 73 72 72 72 71 70 69 68 68 67 67 61 59 59 60 60 61 64
54 51 50 60 63 62 63 65 68 70 70 70 69 69 69 69 70 70 70 70 69 67 67 68 69 69 70 72 73 74 74 74 74 74 74 74 74 75 75 74 74 74 74 74 74 73 73 72 72 71 70 69 68 67 67 67 60 58 58 58 58 60 63
44 49 54 55 60 62 63 63 66 68 69 70 70 70 69 69 70 70 70 71 70 68 67 69 69 69 70 71 73 74 75 75 75 75 75 75 75 75 75 75 75 74 74 73 74 74 73 73 72 71 69 69 68 67 67 67 59 58 58 57 58 59 64
37 39 41 53 59 62 64 64 65 67 69 70 70 70 70 70 70 71 70 71 71 70 69 71 70 70 70 71 73 74 75 75 75 76 75 75 75 75 75 75 74 74 73 73 73 73 72 71 70 69 69 68 68 67 67 65 59 57 56 57 57 59 64
23 28 33 46 61 63 67 68 68 68 69 70 70 70 71 71 71 71 71 71 71 71 70 72 71 71 71 72 74 75 76 76 76 76 75 75 75 74 74 74 74 74 73 72 72 72 72 70 69 68 68 67 67 66 65 64 58 55 55 56 56 60 65
25 21 26 28 52 62 65 66 67 68 70 70 70 71 71 71 71 71 71 71 71 71 70 72 72 72 72 73 75 76 76 76 76 76 75 75 75 74 74 74 74 73 72 71 71 70 70 69 68 68 67 67 66 66 64 64 59 53 54 55 55 60 64
49 50 48 37 33 42 62 66 67 66 69 70 71 71 72 72 71 71 71 71 71 71 70 72 73 73 73 74 76 76 76 76 76 75 75 74 74 74 74 73 73 73 72 71 70 68 68 67 67 66 65 65 64 64 64 64 61 58 53 54 54 57 64
53 54 62 64 57 58 44 65 67 68 69 71 71 72 72 72 71 71 71 72 72 71 71 72 74 74 74 76 76 76 76 76 75 75 74 74 74 73 73 72 72 72 71 69 68 67 66 66 65 64 64 64 64 63 64 64 61 59 52 52 53 55 59
68 69 72 72 72 69 60 40 62 69 70 72 72 72 72 72 71 71 72 72 72 71 72 74 75 75 76 76 76 75 75 75 74 74 74 73 73 72 71 71 71 70 69 68 67 66 66 65 65 64 63 63 63 63 63 64 62 59 53 52 52 53 55
65 65 68 69 69 68 68 72 70 70 71 72 72 72 72 72 71 72 72 72 72 73 74 76 76 76 76 76 75 74 74 74 73 73 73 72 71 71 70 70 69 68 68 68 67 66 65 65 65 64 64 64 63 62 62 63 64 59 58 52 50 51 52
64 63 65 66 66 68 69 71 72 73 73 73 73 73 73 73 72 73 73 73 74 75 76 76 76 76 75 74 74 74 73 73 72 72 72 71 70 70 69 69 68 68 68 67 67 66 65 65 65 64 63 63 63 63 65 64 62 60 58 56 52 50 50
64 64 64 65 66 67 66 66 66 67 68 72 74 74 74 74 73 73 73 75 75 76 76 76 75 75 74 74 73 73 72 72 72 72 71 70 70 69 68 68 67 66 66 66 66 66 65 65 64 63 63 63 63 65 66 65 64 63 61 57 53 51 50
64 64 64 65 66 67 67 67 68 67 69 72 76 76 75 75 74 73 75 76 75 76 76 75 74 73 73 73 72 72 71 71 71 71 70 70 69 68 68 67 66 66 66 66 66 65 65 64 64 63 63 64 65 66 65 64 63 61 59 60 57 55 52
64 64 64 64 65 66 67 68 68 67 67 70 72 75 76 75 76 75 75 75 76 75 74 73 72 71 71 71 71 70 70 70 70 70 69 69 68 68 67 66 66 66 65 65 65 65 65 64 64 64 64 65 66 66 65 64 63 61 59 58 57 56 56
63 64 65 65 65 66 66 66 65 65 65 65 67 69 69 70 71 71 73 74 74 73 72 71 71 71 71 70 69 69 70 70 71 69 68 68 67 67 66 66 66 65 65 65 65 65 65 64 64 64 64 65 66 65 65 64 63 62 61 60 58 57 56
62 63 64 64 65 65 64 64 64 65 66 66 67 68 69 69 70 71 72 72 73 72 71 71 69 69 69 69 68 68 68 68 67 65 61 58 55 52 51 60 66 64 60 57 55 62 65 65 65 65 66 66 66 65 65 64 64 63 59 61 56 58 59
62 62 62 64 64 64 66 66 64 65 65 66 66 67 68 68 69 69 70 70 71 70 69 69 69 68 68 68 68 67 67 66 64 63 61 59 57 56 53 49 46 57 61 58 53 50 49 59 65 66 66 66 65 63 65 64 65 58 53 51 51 52 53
63 62 62 63 63 63 63 65 67 66 66 67 67 68 69 68 70 69 69 70 70 69 68 67 67 67 67 67 66 66 66 65 64 62 61 60 59 59 57 56 53 43 43 48 49 46 45 47 52 57 61 64 62 53 48 51 52 51 49 49 49 49 50
65 64 64 65 65 65 65 66 65 65 65 65 66 68 68 68 68 68 69 68 68 68 68 66 66 66 66 66 65 65 65 65 64 63 62 61 60 59 59 58 56 56 47 43 44 44 42 42 45 50 54 56 57 56 56 50 48 48 48 48 48 48 48